Regional Weather Roundup
Issued by NWS Northern Indiana

Home | Current Version | Previous Version | Text Only | Print | Product List | Glossary Off
Versions: 1 2 3 4 5 6 7 8 9 10 11 12 13 14 15 16 17 18 19 20 21 22 23 24 25 26 27 28 29 30 31 32 33 34 35 36 37 38 39 40 41 42 43 44 45 46 47 48 49 50

000
ASUS43 KIWX 292300
RWRIWX

KIWX WEATHER ROUNDUP
NATIONAL WEATHER SERVICE NORTHERN INDIANA
700 PM EDT SUN MAY 29 2016

NOTE: "FAIR" INDICATES FEW OR NO CLOUDS BELOW 12,000 FEET WITH NO
SIGNIFICANT WEATHER AND/OR OBSTRUCTIONS TO VISIBILITY.

* THESE STATIONS ARE NOT UNDER NWS QUALITY CONTROL. THEY ALSO MAY NOT
  REPORT WEATHER SUCH AS PRECIPITATION OR FOG.

INZ001>027-300000-
NORTHERN INDIANA

CITY           SKY/WX    TMP DP  RH WIND       PRES   REMARKS
GARY*          MOSUNNY   81  64  57 W17       29.99F
SOUTH BEND     SUNNY     77  57  50 NW16      29.99S
GOSHEN         MOSUNNY   81  54  39 W17G25    29.97S
ANGOLA*          N/A     84  81  89 W16       29.96S HX  98
FORT WAYNE     MOSUNNY   86  51  29 W16G25    29.96F

$$
INZ028>050-300000-
CENTRAL INDIANA

CITY           SKY/WX    TMP DP  RH WIND       PRES   REMARKS
LAFAYETTE      SUNNY     82  53  36 W14G20    30.00S
KOKOMO*        MOSUNNY   82  54  36 W20       29.98F
MUNCIE*        SUNNY     86  59  39 W9        29.99F
INDIANAPOLIS   PTSUNNY   82  57  42 W10       30.00S

$$
MIZ043>046-050>051-056>058-064>065-071>073-077>080-300000-
SOUTHWEST LOWER MICHIGAN

CITY           SKY/WX    TMP DP  RH WIND       PRES   REMARKS
BATTLE CREEK   SUNNY     77  57  50 W14G26    29.97R
BENTON HARBOR  SUNNY     76  58  53 W12       29.98F
COLDWATER*     SUNNY     81  56  42 W13G22    29.96S
HILLSDALE*     MOSUNNY   83  43  24 W17G23    29.96F
HOLLAND        SUNNY     75  58  55 SW17      29.97F
GRAND RAPIDS   MOSUNNY   78  57  48 W20       29.96S
KALAMAZOO      SUNNY     78  56  46 W16G24    29.97S
STURGIS*       SUNNY     80  58  47 W13G18    29.96S
THREE RIVERS*  FAIR      79  56  45 W18       29.98R

$$
OHZ001>008-015>018-024>025-300000-
NORTHWEST OHIO

CITY           SKY/WX    TMP DP  RH WIND       PRES   REMARKS
DEFIANCE       SUNNY     87  51  28 W13G20    29.94F
FINDLAY        CLOUDY    85  58  39 W20G26    29.93F
TOLEDO EXPRESS SUNNY     81  63  54 SW9       29.91F
TOLEDO METCALF MOSUNNY   86  58  38 SW17      29.92F
LIMA           MOSUNNY   84  62  47 W13       29.96F

$$
AND FOR LAKE MICHIGAN COASTAL AND OPEN LAKE BUOY OBSERVATIONS

STATION/POSITION TEMP    WIND        PRES    VSBY  WAVE
                 AIR SEA DIR/SP/G                  HT/PER
                 (F)     (DEG/KT/KT) (MB)    (MI)  (FT/S)
CALUMET HARBOR    79     250/  7/ 12 1015.1F
MICHIGAN CITY     68     250/ 10/ 11   N/A
BURNS HARBOR      66     290/  8/ 10 1016.3S
SAINT JOSEPH      67     190/  5/  6 1016.6S
SOUTH LAKE BUOY   58 51  180/ 10/ 12 1014.2          0
4 MI NW BRIDGMAN  63 62  280/  6/  8   N/A           1/ 3
MICHIGAN CITY     65 59  290/  8/ 10   N/A           1/ 3

$$
&&




USA.gov is the U.S. government's official web portal to all federal, state and local government web resources and services.